Content
SEND FEEDBACK

Daily
Averages
Monthly
Summary
Germany

BERLIN, GERMANY


Home > Europe > Germany
Elevation: 157 feet     Latitude: 52 23N     Longitude: 013 31E

WEATHER
 
SELECT A DAY
Number of Records: 252,409;   Date Range: 7/3/96 - 8/20/14
 
SHARE

PRINT THIS DATA

[ ← Previous Day ]
WEATHER ALMANAC - MARCH 5, 2013
[ Next Day → ]
[ °C ]   °F
Weather ElementAverageHighLow
Temperature39.5 °F53.6 °F (2:20 pm)28.4 °F (2:20 am)
Dewpoint25.8 °F28.4 °F (4:50 pm)23 °F (4:20 am)
Humidity61.5 %86 % (2:20 am)35 % (1:20 pm)
Barometer29.95 in30.09 in (12:50 am)29.80 in (11:20 pm)
Wind Speed8.5 mph12.7 mph (11:20 am)
Weather ElementAverage
Wind DirectionSE (133.8 °)

Weather ElementTotal
Precipitation---
Heating Degree Days24 (Base 65)
Averaged from 47 records on March 5, 2013
WEATHER CONDITIONS BREAKOUT
WIND DIRECTION BREAKOUT
WEATHER BY HOUR - MARCH 5, 2013
[ °C ]   °F
Local TimeTemperatureDewpointHumidityBarometerVisibilityWind DirectionWind SpeedGust SpeedPrecipitationEventsConditions
12:50 AM30.2 °F24.8 °F80 %30.09 inSE (130°)6.9 mphClear
1:20 AM30.2 °F24.8 °F80 %30.09 inSE (140°)6.9 mphClear
1:50 AM30.2 °F24.8 °F80 %30.09 inSE (130°)6.9 mphClear
2:20 AM28.4 °F24.8 °F86 %30.09 inSE (130°)8.1 mphClear
2:50 AM28.4 °F24.8 °F86 %30.06 inESE (110°)4.6 mphClear
3:20 AM28.4 °F24.8 °F86 %30.06 inESE (120°)5.8 mphClear
3:50 AM28.4 °F24.8 °F86 %30.06 inSE (130°)6.9 mphClear
4:20 AM28.4 °F23.0 °F80 %30.06 inSE (130°)9.2 mphClear
4:50 AM28.4 °F23.0 °F80 %30.04 inSE (130°)6.9 mphClear
5:20 AM28.4 °F23.0 °F80 %30.04 inSE (130°)6.9 mphClear
5:50 AM28.4 °F23.0 °F80 %30.04 inSE (130°)8.1 mphClear
6:20 AM28.4 °F23.0 °F80 %30.04 inSE (130°)8.1 mphClear
6:50 AM28.4 °F23.0 °F80 %30.04 inSE (130°)8.1 mphClear
7:20 AM30.2 °F23.0 °F75 %30.04 inSE (130°)8.1 mphClear
7:50 AM32.0 °F24.8 °F75 %30.04 inESE (120°)5.8 mphClear
8:20 AM33.8 °F26.6 °F75 %30.04 inSE (140°)6.9 mphClear
8:50 AM37.4 °F24.8 °F60 %30.04 inSE (140°)8.1 mphClear
9:20 AM39.2 °F24.8 °F56 %30.01 inSSE (150°)9.2 mphClear
9:50 AM42.8 °F24.8 °F49 %30.01 inSSE (150°)11.5 mphClear
10:20 AM44.6 °F24.8 °F46 %30.01 inSSE (150°)11.5 mphClear
10:50 AM46.4 °F24.8 °F43 %29.98 inSE (140°)11.5 mphClear
11:20 AM48.2 °F24.8 °F40 %29.98 inSE (130°)12.7 mphClear
11:50 AM50.0 °F24.8 °F37 %29.98 inSE (140°)10.4 mphClear
12:20 PM50.0 °F24.8 °F37 %29.95 inSE (140°)10.4 mphClear
12:50 PM50.0 °F24.8 °F37 %29.95 inSE (130°)10.4 mphClear
1:20 PM51.8 °F24.8 °F35 %29.92 inSE (140°)11.5 mphClear
1:50 PM51.8 °F24.8 °F35 %29.92 inSE (130°)11.5 mphClear
2:20 PM53.6 °F26.6 °F35 %29.92 inSSE (150°)11.5 mphClear
2:50 PM53.6 °F26.6 °F35 %29.92 inSE (140°)11.5 mphClear
3:20 PM53.6 °F26.6 °F35 %29.89 inSSE (150°)12.7 mphClear
3:50 PM53.6 °F26.6 °F35 %29.89 inSSE (150°)12.7 mphClear
4:20 PM51.8 °F26.6 °F38 %29.89 inSE (140°)12.7 mphClear
4:50 PM51.8 °F28.4 °F41 %29.89 inSE (140°)11.5 mphClear
5:20 PM48.2 °F28.4 °F46 %29.89 inSSE (160°)12.7 mphClear
5:50 PM46.4 °F28.4 °F50 %29.86 inSSE (150°)11.5 mphClear
6:20 PM44.6 °F28.4 °F53 %29.86 inSSE (150°)9.2 mphClear
6:50 PM44.6 °F28.4 °F53 %29.86 inSSE (150°)6.9 mphClear
7:20 PM42.8 °F28.4 °F57 %29.86 inSE (130°)5.8 mphClear
7:50 PM41.0 °F28.4 °F61 %29.86 inESE (110°)4.6 mphClear
8:20 PM39.2 °F28.4 °F65 %29.86 inEast (100°)4.6 mphClear
8:50 PM37.4 °F28.4 °F70 %29.83 inEast (90°)4.6 mphClear
9:20 PM37.4 °F28.4 °F70 %29.83 inEast (100°)5.8 mphClear
9:50 PM35.6 °F28.4 °F75 %29.83 inSE (130°)5.8 mphClear
10:20 PM35.6 °F28.4 °F75 %29.83 inSE (140°)4.6 mphClear
10:50 PM33.8 °F26.6 °F75 %29.83 inSE (130°)5.8 mphClear
11:20 PM33.8 °F26.6 °F75 %29.80 inSSE (150°)5.8 mphClear
11:50 PM33.8 °F28.4 °F81 %29.80 inSE (130°)5.8 mphClear
Hourly data recorded from EDDB, located miles away from Berlin, Germany







STORIES FROM OUR PARTNERS